Regional Weather Roundup
Issued by NWS Upton, NY

Current Version | Previous Version | Text Only | Print | Product List | Glossary Off
Versions: 1 2 3 4 5 6 7 8 9 10 11 12 13 14 15 16 17 18 19 20 21 22 23 24 25 26 27
000 ASUS41 KOKX 221108 RWROKX REGIONAL WEATHER ROUNDUP NATIONAL WEATHER SERVICE NEW YORK NY 600 AM EST WED FEB 22 2017 NOTE: "FAIR" INDICATES FEW OR NO CLOUDS BELOW 12,000 FEET WITH NO SIGNIFICANT WEATHER AND/OR OBSTRUCTIONS TO VISIBILITY. NYZ071-072-176-178-NJZ106-104-221200- NEW YORK CITY METRO AREA CITY SKY/WX TMP DP RH WIND PRES REMARKS Central Park CLOUDY 44 34 67 VRB3 30.07F Wall St Helipt NOT AVBL LaGuardia APRT CLOUDY 45 35 68 S6 30.06R Kennedy INTL CLOUDY 41 38 89 SW5 30.08S Breezy Point N/A 39 N/A N/A SW5 N/A Newark/Liberty CLOUDY 42 35 76 S6 30.06S Teterboro MOCLDY 43 35 73 S5 30.05S $$ NYZ177-179-078>081-221200- LONG ISLAND NEW YORK CITY SKY/WX TMP DP RH WIND PRES REMARKS Jones Beach N/A 41 N/A N/A SW3 N/A Matinecock PT N/A 43 N/A N/A SW8 N/A Farmingdale CLOUDY 42 37 82 SW6 30.07R MacArthur/ISP CLOUDY 41 39 93 SW7 30.06R Shirley CLOUDY 41 39 93 SW7 30.07S Westhampton CLOUDY 42 38 85 SW5 30.08S Southampton NOT AVBL Bridgehampton NOT AVBL East Hampton CLOUDY 41 38 89 SW5 30.06R Montauk N/A 43 40 89 SW6 30.07S $$ NYZ052-065-067-221200- HUDSON VALLEY CITY SKY/WX TMP DP RH WIND PRES REMARKS White Plains CLOUDY 41 33 73 CALM 30.03S Newburgh CLOUDY 41 34 75 CALM 30.03S Montgomery CLOUDY 38 33 82 S3 30.01S Poughkeepsie CLOUDY 38 32 79 CALM 30.02S Albany CLOUDY 39 29 67 S5 30.01S $$ NJZ001-105-106-008-010-013-015-019>022-104-221200- NEW JERSEY CITY SKY/WX TMP DP RH WIND PRES REMARKS Newark/Liberty CLOUDY 42 35 76 S6 30.06S Teterboro MOCLDY 43 35 73 S5 30.05S Caldwell CLOUDY 42 33 70 SW3 30.05F Somerville PTCLDY 37 32 82 CALM 30.05R Linden NOT AVBL Sussex CLOUDY 41 34 76 CALM 30.02S Andover N/A 40 33 76 CALM 30.03S Trenton CLOUDY 40 35 83 SE3 30.06R Millville PTCLDY 41 39 93 CALM 30.07R Atlantic City PTCLDY 41 37 86 CALM 30.07R Wrightstown MIX PCPN 39 36 87 CALM 30.04F Toms River CLOUDY 37 35 92 CALM 30.08S Belmar CLOUDY 39 36 89 CALM 30.08F $$ PAZ047>061-062-071-221200- EASTERN PENNSYLVANIA CITY SKY/WX TMP DP RH WIND PRES REMARKS Philadelphia CLOUDY 42 37 82 CALM 30.08R Allentown CLOUDY 40 33 76 CALM 30.04S Scranton CLOUDY 44 33 65 CALM 30.00R $$ CTZ002-004>006-009-010-012-RIZ004-006-007-MAZ004-011-015-221200- SOUTHERN NEW ENGLAND IN CT CITY SKY/WX TMP DP RH WIND PRES REMARKS Bradley INTL MOCLDY 37 33 85 S3 30.04R Hartford MOCLDY 37 33 85 S3 30.05R Danbury CLOUDY 38 33 82 SW3 30.04R Wtrbury/Oxford MOCLDY 37 30 75 SW5 30.04S WCI 34 Bridgeport CLOUDY 41 36 82 SW5 30.05F Meriden CLOUDY 39 33 79 CALM 30.05R New Haven CLOUDY 39 37 92 SW5 30.05F Chester PTSUNNY 39 37 93 SW6 30.04S WCI 35 Groton CLOUDY 40 38 93 CALM 30.05F Wilimantic CLOUDY 36 32 85 CALM 30.05S IN RI CITY SKY/WX TMP DP RH WIND PRES REMARKS Providence CLOUDY 39 34 82 SW6 30.05F WCI 35 Block Island CLOUDY 42 39 89 SW13 30.06S Westerly CLOUDY 42 36 79 SW5 30.06S IN MA CITY SKY/WX TMP DP RH WIND PRES REMARKS Boston CLOUDY 39 33 79 SW9 30.03F WCI 33 Worcester PTCLDY 34 30 85 SW9 29.99F WCI 27 Westfield MOCLDY 33 31 92 SW3 30.03R Provincetown CLOUDY 39 34 82 S10 30.05S WCI 32 Nantucket CLOUDY 39 36 89 S8 30.07F WCI 33 $$ ANZ330-335-338-340-345-350-353-355-221200- COASTAL MARINE OBSERVATIONS STATION/POSITION TIME SKY/WX TEMP WIND PRES VSBY WAVE AIR SEA DIR/SP/G HT/PER (UTC) (F) (DEG/KT/KT) (MB) (MI) (FT/S) NY HARB ENTRANCE 1050 42 42 210/ 4/ 6 1017.9 2/ 8 20 S FIRE ISLAND 1050 43 43 210/ 6/ 8 1018.0 2/ 8 GREAT SOUTH BAY NOT AVBL 23 SSW MONTAUK P 1050 45 46 1018.2 3/ 7 15 E BARNEGAT LI 1030 42 N/A 2/ 8 HUDSON CANYON 0950 49 1018.9 2/ 8 KINGS POINT 1042 42 38 1017.8 EXECUTION ROCKS NOT AVBL CENTRAL LI SOUND 1030 40 210/ 6/ 8 N/A 0 EASTERN LI SOUND NOT AVBL ROBBINS REEF 1042 41 170/ 7/ 8 1018.3 $$ >>>>>>>>>>>>>>>>>>>>>>>>>>>> KEY <<<<<<<<<<<<<<<<<<<<<<<<<<< > < > SKY/WX - Sky Condition/Present Weather < > TMP - Temperature in Fahrenheit < > DP - Dew Point in Fahrenheit < > RH - Relative Humidity in Percent < > WIND - Direction (from) and Speed in MPH < > PRES - Mean Sea Level Pressure (inches of Hg) < > WCI - Wind Chill Index < > VSB - VISIBILITY IN MILES < > HX - HEAT INDEX < > TC - TEMPERATURE IN CELSIUS < > VRB - VARIABLE WIND DIRECTION < > < >>>>>>>>>>>>>>>>>>>>>>>>>>>> KEY <<<<<<<<<<<<<<<<<<<<<<<<<<<

USA.gov is the U.S. government's official web portal to all federal, state and local government web resources and services.